Location: El Boquerón
(3.1908°N, 75.6036°W)
Time: 06:03:20
(UTC+00:00)

ERS-1 - Pass Details

Date: 11 December 2025
Orbit: 738 x 783 km, 98.8° (Epoch: 24 January)

Event Time Altitude Azimuth Distance (km) Brightness Sun altitude
Rises 23:13:15 0° 165° (SSE) 3,247 7.9 -5.2°
Reaches altitude 10° 23:15:35 10° 164° (SSE) 2,312 7.1 -5.8°
Maximum altitude 23:20:41 81° 77° (ENE) 777 4.5 -6.9°
Drops below altitude 10° 23:25:42 10° 351° (N) 2,276 6.8 -8.1°
Sets 23:27:58 0° 350° (N) 3,192 7.6 -8.6°
